Location: Leesville
(37.1191°N, 79.3856°W)
Time: 20:06:02
(UTC+00:00)

BlueWalker 3 - Visible Passes

Search period start: 06 October 2024 00:00
Search period end: 16 October 2024 00:00
Orbit: 473 x 485 km, 53.2° (Epoch: 05 October)

Date Brightness Start Highest point End Pass type
(mag) Time Alt. Az. Time Alt. Az. Time Alt. Az.
06 Oct 2.9 09:16:40 42° NE 09:16:40 42° NE 09:19:14 10° NE visible
06 Oct 3.9 10:51:48 10° WNW 10:53:59 15° NNW 10:56:10 10° N visible
07 Oct 4.5 08:49:56 18° NE 08:49:56 18° NE 08:51:02 10° NE visible
07 Oct 3.8 10:24:09 13° NW 10:25:43 16° NNW 10:28:06 10° NNE visible
08 Oct 3.7 09:57:17 17° NNW 09:57:25 17° NNW 09:59:58 10° NNE visible
09 Oct 4.0 09:30:18 16° N 09:30:18 16° N 09:31:47 10° NNE visible
10 Oct 4.7 09:03:14 12° NNE 09:03:14 12° NNE 09:03:33 10° NNE visible
